Aérodrome :
LOGIN :

S'inscrire | Disclaimer

   EN    FR    IT 

 










Légende :    VFR   VFR Marginal   IFR   IFR Intensif   IFR Très Intensif
Visi : 
Plafond : 
>= 8 km
>= 3000ft
5 à 8 km
1000 à 3000 ft
1500m à 5 km
500 à 1000 ft
800 à 1500m
200 à 500 ft
< 800m
< 200 ft
Symboles :   Orages  Brouillard  Fortes neiges  Fortes précipitations  Vent > 20 kt
SIGMETs :   Divers  Orages  Givrage  Turbulence  Onde Orograph.  Cendres Volcan.







- Altitude de l'aérodrome : 172 ft
- Code IATA : LPI


ESSL - Saab

DERNIER METAR :
  • 181850Z 23006KT 190V270 CAVOK 07/04 Q1009 R29/09//95

METARs EXPIRÉS :
  • 181820Z 22007KT 190V270 CAVOK 08/04 Q1010 R29/09//95
  • 181750Z 22006KT 190V260 CAVOK 08/04 Q1010 R29/09//95
  • 181720Z 22006KT CAVOK 08/04 Q1010 R29/09//95
  • 181650Z 23005KT 190V260 9999 FEW030 09/04 Q1010 R29/09//95
  • 181620Z 23006KT 9999 BKN030 09/04 Q1011 R29/09//95

TAF TAF ESSL
Valide du 18 à 18h jusqu'au 18 à 23h UTC


181730Z 1818/1823 23005KT 9000 FEW030
PROB40 1821/1823 4000 BR BKN012
Pas de NOTAMs connus pour ce terrain.



MET'MAP, la Météo Aéronautique d'un coup d'oeil ! - Copyright ORBIFLY Décembre 2007 - Disclaimer

ORBIFLY MET'MAP TEAM :

Programmation & Développement : Alexandra Zaïnal
Conception & Développement : Baudouin d'Aumeries
Co-Programmation & Développement : Marc-Olivier Méhu
Soutien technique & logistique : Manuel Goepfert

Contact : metmap@orbifly.com




SOURCES & CREDITS :

   NOAA